[[{"header":{"parameterUnit":"m.s-1","parameterCategory":1,"la1":30.2991,"la2":30.254,"lo1":-89.0895,"lo2":-89.0444,"dy":0.0017,"dx":0.0017,"nx":28,"ny":28,"refTime":"2026-01-09T03:00:00:Z","depth":0,"parameterNumber":2,"parameterNumberName":"U-component_of_WINDS"},"data":[0,0,0,0,0,0,0,0,0,0,0,0,0,0,0,0,0,0,0,0,0,0,0,0,0,0,0,0,0,0,0,0,0,0,0,0,0,0,0,0,0,0,0,0,0,0,0,0,0,0,0,0,0,0,0,0,0,0,-1.3164,-1.3164,0,-1.3221,-1.3222,-1.3222,-1.325,-1.325,-1.325,-1.325,-1.3311,-1.3313,-1.3314,0,0,0,0,0,0,0,0,0,0,0,0,0,-1.308,-1.3081,-1.3164,-1.3164,-1.3165,-1.3221,-1.3222,-1.3223,-1.325,-1.325,-1.325,-1.325,-1.331,-1.3312,-1.3314,0,0,0,0,0,0,0,0,0,0,0,0,0,-1.3125,-1.3082,-1.3164,-1.3185,-1.3188,-1.3221,-1.3222,-1.3223,-1.325,-1.325,-1.325,-1.325,-1.331,-1.3312,-1.3315,-1.3331,0,0,-1.3322,-1.3323,0,0,0,0,0,0,0,0,-1.3122,-1.3128,-1.3181,-1.3184,-1.3187,-1.3228,-1.3215,-1.3259,-1.325,-1.3226,-1.325,-1.325,-1.3284,-1.3288,-1.3299,-1.3334,-1.3337,-1.3323,-1.3324,-1.3325,-1.3326,0,0,0,0,0,0,0,-1.3119,-1.3126,-1.3186,-1.3182,-1.3185,-1.3193,-1.3199,-1.3223,-1.3255,-1.3228,-1.323,-1.3237,-1.3285,-1.3297,-1.3301,-1.3338,-1.3322,-1.3325,-1.3326,-1.3327,-1.3389,-1.3389,0,0,0,0,0,0,-1.3112,-1.3123,-1.3185,-1.3188,-1.3154,-1.3195,-1.3202,-1.3215,-1.3254,-1.326,-1.3237,-1.3238,-1.3293,-1.3298,-1.3303,-1.3325,-1.3325,-1.3327,-1.3329,-1.3389,-1.3389,-1.3389,0,0,0,0,0,0,-1.311,-1.3117,-1.3182,-1.3156,-1.3165,-1.3196,-1.3211,-1.3216,-1.3228,-1.3261,-1.3267,-1.3243,-1.3293,-1.33,-1.3324,-1.3328,-1.3329,-1.3331,-1.3389,-1.3389,-1.3389,-1.3369,0,0,0,0,0,0,-1.3108,-1.3117,-1.3123,-1.3156,-1.3166,-1.3201,-1.3211,-1.3217,-1.3232,-1.3234,-1.3268,-1.3274,-1.3293,-1.332,-1.3326,-1.3331,-1.3333,-1.3388,-1.3389,-1.3389,-1.3369,-1.3368,-1.3367,0,0,0,0,0,-1.3105,-1.3115,-1.3123,-1.313,-1.3174,-1.3201,-1.3207,-1.3229,-1.3232,-1.3238,-1.326,-1.3273,-1.3326,-1.3322,-1.333,-1.3335,-1.3388,-1.3389,-1.3389,-1.337,-1.3368,-1.3367,0,0,0,0,0,0,-1.3082,-1.312,-1.3129,-1.315,-1.3172,-1.3206,-1.3215,-1.3227,-1.3249,-1.325,-1.3277,-1.3284,-1.3306,-1.3323,-1.3318,-1.3353,-1.3358,-1.336,-1.3341,-1.334,-1.3339,-1.3335,-1.3335,0,0,0,0,0,-1.308,-1.3098,-1.313,-1.3146,-1.3156,-1.3184,-1.3196,-1.3211,-1.3235,-1.3245,-1.3268,-1.3292,-1.3314,-1.3328,-1.335,-1.3372,-1.338,-1.3379,-1.3378,-1.3377,-1.3379,-1.3391,-1.3392,-1.339,-1.339,-1.339,0,0,-1.3075,-1.3098,-1.3108,-1.3142,-1.3161,-1.318,-1.3191,-1.3211,-1.3225,-1.3248,-1.3272,-1.329,-1.3318,-1.3341,-1.3352,-1.3356,-1.3381,-1.3378,-1.3377,-1.3379,-1.3392,-1.3392,-1.3392,-1.339,-1.339,-1.339,0,0,-1.3076,-1.3095,-1.311,-1.3128,-1.3156,-1.3174,-1.3178,-1.3209,-1.3222,-1.3246,-1.3263,-1.3281,-1.3319,-1.3339,-1.3353,-1.3361,-1.3374,-1.3368,-1.3363,-1.3375,-1.3375,-1.3375,-1.3378,-1.3379,-1.3369,-1.3369,-1.3369,0,-1.3067,-1.3095,-1.3117,-1.3135,-1.3149,-1.317,-1.3186,-1.3203,-1.3237,-1.3247,-1.325,-1.3298,-1.3319,-1.3346,-1.3348,-1.3359,-1.3365,-1.3364,-1.3373,-1.3374,-1.3374,-1.3377,-1.3378,-1.3368,-1.3368,-1.3368,-1.3368,0,-1.3082,-1.3101,-1.3111,-1.3142,-1.3157,-1.3174,-1.3199,-1.3213,-1.3226,-1.3244,-1.3268,-1.3294,-1.3321,-1.3329,-1.3343,-1.3359,-1.336,-1.3368,-1.3374,-1.3373,-1.3377,-1.3378,-1.3367,-1.3367,-1.3367,-1.3367,0,0,-1.3071,-1.3113,-1.3116,-1.3131,-1.3163,-1.3179,-1.3197,-1.3223,-1.3234,-1.3257,-1.3273,-1.3304,-1.3311,-1.3328,-1.3344,-1.3355,-1.3359,-1.3362,-1.3363,-1.336,-1.3379,-1.3373,-1.3374,-1.3368,-1.3368,-1.3369,-1.3377,0,-1.3077,-1.3109,-1.3129,-1.3153,-1.3171,-1.3191,-1.3207,-1.3229,-1.3246,-1.3265,-1.3284,-1.3305,-1.3313,-1.3324,-1.3335,-1.3356,-1.3364,-1.3356,-1.3384,-1.3385,-1.3376,-1.3376,-1.3369,-1.3376,-1.3378,-1.3378,-1.3379,0,-1.3087,-1.3108,-1.3134,-1.3164,-1.3172,-1.3186,-1.3211,-1.3229,-1.3254,-1.3266,-1.3284,-1.33,-1.3321,-1.3325,-1.3354,-1.3349,-1.3361,-1.3374,-1.3374,-1.3378,-1.3382,-1.338,-1.3379,-1.338,-1.3381,-1.3381,-1.3381,0,-1.3076,-1.3111,-1.3131,-1.3143,-1.3178,-1.3187,-1.3203,-1.3228,-1.3242,-1.3265,-1.3275,-1.33,-1.3313,-1.3333,-1.3355,-1.3356,-1.3383,-1.3388,-1.3394,-1.3393,-1.3399,-1.3398,-1.34,-1.3406,-1.3406,-1.3406,-1.3406,0,-1.308,-1.3096,-1.3127,-1.3139,-1.3157,-1.318,-1.3197,-1.3214,-1.3237,-1.3253,-1.3272,-1.3288,-1.3316,-1.3336,-1.3354,-1.3375,-1.3381,-1.3392,-1.3397,-1.3391,-1.3389,-1.3399,-1.34,-1.3407,-1.3407,-1.3407,-1.3407,0,-1.3072,-1.3093,-1.3116,-1.3147,-1.3155,-1.3167,-1.3194,-1.3207,-1.3225,-1.3246,-1.3252,-1.3281,-1.3304,-1.3329,-1.3361,-1.3373,-1.3394,-1.3401,-1.3385,-1.3388,-1.3392,-1.3391,-1.34,-1.3403,-1.3407,-1.3407,-1.3407,0,-1.3073,-1.3085,-1.3116,-1.3128,-1.3143,-1.3162,-1.3176,-1.3199,-1.3214,-1.3243,-1.3253,-1.3278,-1.3299,-1.3336,-1.336,-1.3385,-1.3392,-1.3394,-1.3396,-1.339,-1.3393,-1.3392,-1.3393,-1.3393,-1.3393,-1.3393,-1.3393,0,-1.3072,-1.3082,-1.3102,-1.3125,-1.3141,-1.3161,-1.3181,-1.319,-1.3217,-1.3233,-1.3257,-1.3273,-1.3305,-1.333,-1.3357,-1.3375,-1.3388,-1.3392,-1.3394,-1.3388,-1.3379,-1.3384,-1.3383,-1.3391,-1.3391,-1.3392,-1.3392,-1.3392,-1.3069,-1.308,-1.3104,-1.3125,-1.3143,-1.3161,-1.3175,-1.3194,-1.3214,-1.3241,-1.3254,-1.3278,-1.3303,-1.3342,-1.3358,-1.3378,-1.3382,-1.3386,-1.3387,-1.3387,-1.3386,-1.3375,-1.3383,-1.3383,-1.3383,-1.3384,-1.3384,0,-1.307,-1.3086,-1.3105,-1.3132,-1.3149,-1.3159,-1.3182,-1.3196,-1.3216,-1.3238,-1.3258,-1.3285,-1.3309,-1.3335,-1.3361,-1.3372,-1.3379,-1.3378,-1.3377,-1.3381,-1.3381,-1.3376,-1.3371,-1.3371,-1.3371,-1.3371,-1.3371,-1.3371,-1.3072,-1.3092,-1.3104,-1.3133,-1.315,-1.3172,-1.3185,-1.3202,-1.322,-1.3249,-1.3268,-1.3285,-1.3308,-1.3336,-1.3359,-1.3366,-1.3375,-1.3372,-1.3381,-1.338,-1.3381,-1.3382,-1.3377,-1.3373,-1.3373,-1.3379,-1.3379,-1.3379]},{"header":{"parameterUnit":"m.s-1","parameterCategory":1,"la1":30.2991,"la2":30.254,"lo1":-89.0895,"lo2":-89.0444,"dy":0.0017,"dx":0.0017,"nx":28,"ny":28,"refTime":"2026-01-09T03:00:00:Z","depth":0,"parameterNumber":3,"parameterNumberName":"V-component_of_WINDS"},"data":[0,0,0,0,0,0,0,0,0,0,0,0,0,0,0,0,0,0,0,0,0,0,0,0,0,0,0,0,0,0,0,0,0,0,0,0,0,0,0,0,0,0,0,0,0,0,0,0,0,0,0,0,0,0,0,0,0,0,3.4914,3.4915,0,3.4992,3.4993,3.4994,3.5013,3.5012,3.5012,3.5011,3.509,3.5092,3.5095,0,0,0,0,0,0,0,0,0,0,0,0,0,3.4781,3.4783,3.4914,3.4915,3.4916,3.4992,3.4993,3.4994,3.5013,3.5012,3.5012,3.5011,3.5089,3.5092,3.5095,0,0,0,0,0,0,0,0,0,0,0,0,0,3.4847,3.4784,3.4914,3.4934,3.4937,3.4991,3.4993,3.4994,3.5013,3.5012,3.5011,3.5011,3.5088,3.5092,3.5095,3.5134,0,0,3.5107,3.5109,0,0,0,0,0,0,0,0,3.4843,3.4851,3.493,3.4933,3.4936,3.4992,3.4975,3.5041,3.5013,3.4984,3.5011,3.501,3.5058,3.5064,3.508,3.5138,3.5141,3.5107,3.511,3.5111,3.5113,0,0,0,0,0,0,0,3.4838,3.4848,3.4945,3.4931,3.4935,3.494,3.4948,3.4987,3.5024,3.4987,3.4988,3.4997,3.5059,3.5076,3.5082,3.5142,3.5107,3.5111,3.5113,3.5115,3.5239,3.524,0,0,0,0,0,0,3.483,3.4844,3.4942,3.4947,3.4887,3.4943,3.4952,3.4975,3.5024,3.5031,3.4998,3.4998,3.507,3.5078,3.5085,3.5136,3.5111,3.5115,3.5117,3.5238,3.5239,3.524,0,0,0,0,0,0,3.4827,3.4839,3.4939,3.4896,3.4909,3.4946,3.4971,3.4977,3.4994,3.5032,3.5039,3.5009,3.507,3.508,3.5123,3.5139,3.5117,3.512,3.5236,3.5238,3.5239,3.5237,0,0,0,0,0,0,3.4823,3.4838,3.4853,3.4896,3.4911,3.4975,3.4972,3.4979,3.5001,3.5002,3.5044,3.5051,3.507,3.5117,3.5126,3.5144,3.5123,3.5235,3.5237,3.5239,3.5236,3.5238,3.524,0,0,0,0,0,3.4819,3.4848,3.4853,3.4865,3.4931,3.4976,3.4985,3.5007,3.5002,3.5018,3.5043,3.5049,3.5135,3.5121,3.5132,3.5151,3.5234,3.5237,3.5239,3.5235,3.5237,3.524,0,0,0,0,0,0,3.4804,3.4854,3.4861,3.4905,3.4936,3.4979,3.5,3.5009,3.5042,3.5041,3.5067,3.5076,3.5118,3.5138,3.5122,3.5192,3.5185,3.5189,3.5178,3.5181,3.5183,3.5178,3.5126,0,0,0,0,0,3.4806,3.4839,3.488,3.4916,3.4931,3.4963,3.4983,3.4998,3.5031,3.5044,3.5072,3.5104,3.5138,3.516,3.5194,3.5238,3.5249,3.5256,3.5259,3.526,3.5264,3.5292,3.5296,3.5247,3.5247,3.5247,0,0,3.4811,3.4842,3.4861,3.4914,3.494,3.4973,3.4974,3.5009,3.5034,3.5049,3.5093,3.5114,3.5151,3.5196,3.5217,3.5214,3.528,3.5263,3.5264,3.5268,3.5295,3.5299,3.5303,3.5249,3.5248,3.5248,0,0,3.4837,3.4863,3.4896,3.4923,3.4963,3.4984,3.4992,3.5034,3.5049,3.5093,3.5106,3.5136,3.5194,3.5221,3.5242,3.528,3.5288,3.529,3.5302,3.5329,3.5333,3.5336,3.5352,3.5357,3.5294,3.5294,3.5294,0,3.4837,3.4889,3.4912,3.4948,3.4971,3.4987,3.5022,3.5046,3.5094,3.511,3.5107,3.5182,3.5207,3.526,3.5269,3.5285,3.5296,3.5286,3.533,3.5334,3.5338,3.5353,3.5359,3.5294,3.5294,3.5294,3.5294,0,3.4889,3.4924,3.4946,3.4995,3.502,3.5055,3.5084,3.5107,3.5119,3.5141,3.5186,3.5218,3.526,3.5273,3.5284,3.5327,3.5325,3.5325,3.5318,3.5342,3.5357,3.5363,3.5294,3.5294,3.5294,3.5294,0,0,3.4908,3.497,3.4977,3.5001,3.5046,3.5074,3.511,3.5152,3.5172,3.5205,3.5237,3.5286,3.5288,3.5312,3.5327,3.5349,3.538,3.5347,3.5349,3.5354,3.5432,3.5433,3.544,3.5385,3.5387,3.5388,3.543,0,3.4941,3.5007,3.5029,3.5084,3.5118,3.5134,3.5166,3.5197,3.5219,3.5251,3.5274,3.531,3.5308,3.5323,3.5346,3.5372,3.5397,3.5369,3.5417,3.5418,3.5409,3.5447,3.5448,3.5487,3.5436,3.5437,3.5437,0,3.4989,3.5024,3.5082,3.5126,3.5141,3.5169,3.521,3.524,3.5277,3.5291,3.5319,3.5333,3.5372,3.5361,3.5416,3.5397,3.5417,3.5433,3.5435,3.5442,3.5431,3.5457,3.5499,3.5506,3.5446,3.5446,3.5445,0,3.5,3.5062,3.5105,3.5124,3.5176,3.5195,3.5218,3.5254,3.5278,3.5313,3.533,3.5368,3.539,3.542,3.5445,3.5435,3.5498,3.5489,3.5512,3.5512,3.5526,3.5525,3.5574,3.5536,3.5536,3.5536,3.5535,0,3.5036,3.5071,3.5112,3.5138,3.5179,3.5205,3.5244,3.5267,3.53,3.5332,3.5347,3.5377,3.5406,3.544,3.5459,3.5503,3.5512,3.5525,3.553,3.5525,3.5524,3.5541,3.5539,3.5537,3.5537,3.5536,3.5536,0,3.5056,3.5084,3.5133,3.5178,3.519,3.5219,3.5257,3.5285,3.5307,3.5347,3.5358,3.5393,3.5434,3.5461,3.5512,3.5525,3.5574,3.5577,3.5562,3.5565,3.5587,3.5586,3.565,3.5661,3.5613,3.5614,3.5614,0,3.5078,3.5106,3.5155,3.5178,3.5201,3.5237,3.5263,3.5289,3.5315,3.536,3.5382,3.5424,3.546,3.5524,3.5554,3.5594,3.56,3.562,3.5606,3.5601,3.5604,3.5603,3.5607,3.5623,3.5623,3.5623,3.5624,0,3.5115,3.5128,3.5164,3.5206,3.5237,3.527,3.5304,3.5322,3.5355,3.5383,3.5426,3.5453,3.5507,3.5549,3.5593,3.5616,3.5626,3.5628,3.5636,3.5632,3.5623,3.5631,3.5571,3.5626,3.5626,3.5626,3.5626,3.5626,3.5138,3.5165,3.5204,3.5245,3.5274,3.5306,3.5334,3.5361,3.5397,3.5444,3.5457,3.5502,3.554,3.5599,3.5623,3.5659,3.5657,3.5667,3.5671,3.5673,3.5675,3.5616,3.5666,3.5666,3.5666,3.5666,3.5666,0,3.5178,3.5205,3.5242,3.529,3.5322,3.5329,3.5368,3.5395,3.5434,3.5469,3.5504,3.5554,3.5596,3.5629,3.5672,3.5695,3.5701,3.5705,3.5705,3.5711,3.5673,3.5663,3.57,3.57,3.57,3.57,3.57,3.57,3.5203,3.525,3.5268,3.5329,3.5355,3.54,3.5422,3.5452,3.548,3.5536,3.5571,3.5593,3.5628,3.5674,3.5713,3.5722,3.5738,3.5742,3.5752,3.5717,3.5713,3.571,3.5701,3.5745,3.5745,3.5787,3.5788,3.5788]}]]